This is the latest recevied weather packets stored in our database for station/object DR0T. If no packets are shown the sender has not sent any weather packets the latest 10 day(s).
| Time | Temp. | Humidity | Pressure | Rain* | Wind** | Luminosity | Snow |
|---|---|---|---|---|---|---|---|
| 1778227644 | 11.11° C | 82% | 1018.3 hPa | 0 mm | - | - | - |
| 1778227346 | 11.11° C | 84% | 1018.4 hPa | 0 mm | - | - | - |
| 1778227042 | 11.67° C | 83% | 1018.4 hPa | 0 mm | - | - | - |
| 1778226740 | 11.67° C | 83% | 1018.3 hPa | 0 mm | - | - | - |
| 1778226439 | 11.67° C | 83% | 1018.4 hPa | 0 mm | - | - | - |
| 1778226142 | 10.56° C | 85% | 1018.3 hPa | 0 mm | - | - | - |
| 1778225839 | 10.56° C | 86% | 1018.3 hPa | 0 mm | - | - | - |
| 1778225555 | 11.11° C | 85% | 1018.4 hPa | 0 mm | - | - | - |
| 1778225254 | 11.11° C | 86% | 1018.4 hPa | 0 mm | - | - | - |
| 1778224953 | 10.56° C | 86% | 1018.4 hPa | 0 mm | - | - | - |
| 1778224651 | 11.11° C | 88% | 1018.4 hPa | 0 mm | - | - | - |
| 1778224355 | 10.56° C | 87% | 1018.3 hPa | 0 mm | - | - | - |
| 1778224049 | 10.56° C | 88% | 1018.4 hPa | 0 mm | - | - | - |
| 1778223747 | 10.56° C | 87% | 1018.3 hPa | 0 mm | - | - | - |
| 1778223449 | 10.56° C | 87% | 1018.4 hPa | 0 mm | - | - | - |
| 1778223145 | 10.56° C | 88% | 1018.3 hPa | 0 mm | - | - | - |
| 1778222848 | 10° C | 89% | 1018.3 hPa | 0 mm | - | - | - |
| 1778222543 | 10° C | 90% | 1018.3 hPa | 0 mm | - | - | - |
| 1778222242 | 10° C | 90% | 1018.2 hPa | 0 mm | - | - | - |
| 1778221940 | 9.44° C | 92% | 1018.2 hPa | 0 mm | - | - | - |
| 1778221639 | 9.44° C | 92% | 1018.2 hPa | 0 mm | - | - | - |
| 1778221344 | 8.89° C | 92% | 1018.1 hPa | 0 mm | - | - | - |
| 1778221037 | 8.89° C | 95% | 1018 hPa | 0 mm | - | - | - |
| 1778220736 | 8.33° C | 99% | 1017.9 hPa | 0 mm | - | - | - |
| 1778220455 | 8.33° C | 99% | 1017.9 hPa | 0 mm | - | - | - |
* Rain latest hour (hover to see other rain measurements)
** Current wind speed in m/s (hover to see current wind gust speed)